| time (UTC) | temp F | wind direction | speed MPH | gust MPH | rain 1hr in | rain 24hr in | rain mn in | humidity % | barometer mb |
| 20260507151544 | 71 | 360 | 1.0 | 4.0 | 0.03 | 1.76 | 1.33 | 97 | 1012.5 |
| 20260507150051 | 70 | 360 | 2.0 | 6.0 | 0.00 | 1.73 | 1.30 | 97 | 1012.2 |
| 20260507144558 | 70 | 360 | 1.0 | 12.0 | 0.00 | 1.73 | 1.30 | 97 | 1012.1 |
| 20260507143058 | 70 | 360 | 2.0 | 11.0 | 0.00 | 1.73 | 1.30 | 97 | 1012.1 |
| 20260507141556 | 70 | 360 | 4.0 | 13.0 | 0.01 | 1.73 | 1.30 | 97 | 1011.9 |
| 20260507140046 | 70 | 360 | 2.0 | 11.0 | 0.01 | 1.73 | 1.30 | 98 | 1011.6 |
| 20260507134556 | 69 | 360 | 3.0 | 12.0 | 0.02 | 1.73 | 1.30 | 98 | 1011.3 |
| 20260507133134 | 69 | 360 | 3.0 | 9.0 | 0.02 | 1.73 | 1.30 | 98 | 1011.6 |
| 20260507131549 | 69 | 0 | 1.0 | 11.0 | 0.01 | 1.72 | 1.29 | 98 | 1012.0 |
| 20260507130059 | 68 | 360 | 2.0 | 9.0 | 0.03 | 1.72 | 1.29 | 98 | 1011.8 |
| 20260507124550 | 67 | 360 | 1.0 | 5.0 | 0.06 | 1.71 | 1.28 | 98 | 1011.7 |
| 20260507123049 | 67 | 360 | 1.0 | 6.0 | 0.11 | 1.71 | 1.28 | 97 | 1011.5 |
| 20260507121550 | 67 | 360 | 1.0 | 5.0 | 0.18 | 1.71 | 1.28 | 98 | 1011.1 |
| 20260507120052 | 66 | 360 | 3.0 | 6.0 | 0.24 | 1.69 | 1.26 | 97 | 1011.3 |
| 20260507114600 | 67 | 360 | 2.0 | 6.0 | 0.29 | 1.65 | 1.22 | 97 | 1011.4 |
| 20260507113047 | 66 | 360 | 3.0 | 8.0 | 0.27 | 1.60 | 1.16 | 97 | 1011.1 |
| 20260507111549 | 66 | 360 | 2.0 | 8.0 | 0.21 | 1.53 | 1.10 | 97 | 1011.7 |
| 20260507110047 | 66 | 360 | 2.0 | 4.0 | 0.13 | 1.45 | 1.02 | 97 | 1011.7 |
| 20260507104554 | 66 | 360 | 1.0 | 4.0 | 0.05 | 1.36 | 0.93 | 97 | 1011.9 |
| 20260507103048 | 66 | 360 | 1.0 | 3.0 | 0.04 | 1.33 | 0.90 | 97 | 1011.4 |
| 20260507101550 | 66 | 360 | 1.0 | 3.0 | 0.03 | 1.32 | 0.89 | 97 | 1011.5 |
| 20260507100051 | 66 | 360 | 1.0 | 6.0 | 0.03 | 1.32 | 0.89 | 97 | 1011.7 |
| 20260507094557 | 66 | 0 | 0.0 | 4.0 | 0.02 | 1.31 | 0.88 | 97 | 1011.8 |
| 20260507093046 | 66 | 360 | 0.0 | 5.0 | 0.00 | 1.29 | 0.86 | 97 | 1012.0 |
| 20260507091543 | 66 | 360 | 2.0 | 6.0 | 0.00 | 1.29 | 0.86 | 97 | 1012.3 |
| 20260507090044 | 67 | 360 | 2.0 | 8.0 | 0.00 | 1.29 | 0.86 | 97 | 1012.1 |
| 20260507084548 | 67 | 360 | 2.0 | 8.0 | 0.00 | 1.29 | 0.86 | 97 | 1012.4 |
| 20260507083048 | 67 | 360 | 1.0 | 6.0 | 0.00 | 1.29 | 0.86 | 97 | 1012.8 |
| 20260507081547 | 67 | 360 | 1.0 | 6.0 | 0.01 | 1.29 | 0.86 | 97 | 1012.4 |
| 20260507080046 | 66 | 360 | 0.0 | 4.0 | 0.04 | 1.29 | 0.86 | 97 | 1012.0 |
| 20260507074549 | 66 | 0 | 0.0 | 4.0 | 0.10 | 1.29 | 0.86 | 97 | 1012.4 |
| 20260507073048 | 66 | 360 | 1.0 | 6.0 | 0.16 | 1.29 | 0.86 | 96 | 1012.8 |
| 20260507071542 | 66 | 360 | 3.0 | 8.0 | 0.21 | 1.28 | 0.85 | 96 | 1012.6 |
| 20260507070100 | 66 | 360 | 2.0 | 6.0 | 0.27 | 1.25 | 0.82 | 96 | 1012.4 |
| 20260507064554 | 66 | 360 | 2.0 | 4.0 | 0.33 | 1.19 | 0.76 | 96 | 1013.6 |
| 20260507063048 | 66 | 0 | 0.0 | 3.0 | 0.38 | 1.13 | 0.70 | 96 | 1013.8 |
| 20260507061547 | 66 | 0 | 2.0 | 5.0 | 0.39 | 1.07 | 0.64 | 96 | 1013.4 |
| 20260507060053 | 66 | 360 | 1.0 | 4.0 | 0.34 | 0.97 | 0.54 | 96 | 1013.8 |
| 20260507054558 | 66 | 360 | 1.0 | 4.0 | 0.28 | 0.86 | 0.43 | 95 | 1013.4 |
| 20260507053044 | 67 | 360 | 1.0 | 6.0 | 0.22 | 0.75 | 0.32 | 96 | 1014.9 |
| 20260507051549 | 67 | 360 | 1.0 | 5.0 | 0.21 | 0.68 | 0.25 | 95 | 1014.1 |
| 20260507050049 | 67 | 360 | 1.0 | 11.0 | 0.19 | 0.63 | 0.20 | 95 | 1014.4 |
| 20260507044559 | 67 | 360 | 4.0 | 11.0 | 0.19 | 0.58 | 0.15 | 95 | 1015.0 |
| 20260507043050 | 68 | 360 | 1.0 | 9.0 | 0.18 | 0.52 | 0.10 | 95 | 1013.8 |
| 20260507041546 | 68 | 360 | 3.0 | 8.0 | 0.17 | 0.46 | 0.03 | 95 | 1014.7 |
| 20260507040049 | 68 | 360 | 2.0 | 9.0 | 0.22 | 0.44 | 0.01 | 95 | 1014.8 |
| 20260507034548 | 68 | 360 | 3.0 | 9.0 | 0.24 | 0.39 | 0.39 | 94 | 1014.2 |
| 20260507033100 | 68 | 360 | 2.0 | 6.0 | 0.24 | 0.34 | 0.34 | 94 | 1014.4 |
| 20260507031556 | 68 | 360 | 1.0 | 5.0 | 0.24 | 0.29 | 0.29 | 94 | 1015.0 |
| 20260507024606 | 69 | 360 | 1.0 | 9.0 | 0.13 | 0.15 | 0.15 | 93 | 1015.3 |
| 20260507023048 | 69 | 360 | 2.0 | 8.0 | 0.09 | 0.10 | 0.10 | 92 | 1014.6 |
| 20260507021554 | 70 | 360 | 1.0 | 5.0 | 0.05 | 0.05 | 0.05 | 91 | 1014.9 |
| 20260507020100 | 70 | 0 | 1.0 | 3.0 | 0.02 | 0.02 | 0.02 | 90 | 1014.7 |
| 20260507014557 | 71 | 0 | 0.0 | 1.0 | 0.02 | 0.02 | 0.02 | 89 | 1014.1 |
| 20260507013051 | 72 | 0 | 0.0 | 3.0 | 0.00 | 0.00 | 0.00 | 85 | 1014.0 |
| 20260507011549 | 73 | 360 | 0.0 | 8.0 | 0.00 | 0.00 | 0.00 | 83 | 1014.4 |
| 20260507010049 | 73 | 360 | 1.0 | 3.0 | 0.00 | 0.00 | 0.00 | 83 | 1013.8 |
| 20260507004545 | 74 | 0 | 0.0 | 1.0 | 0.00 | 0.00 | 0.00 | 82 | 1013.8 |
| 20260507003042 | 74 | 0 | 0.0 | 1.0 | 0.00 | 0.00 | 0.00 | 80 | 1013.9 |
| 20260507001551 | 75 | 0 | 0.0 | 2.0 | 0.00 | 0.00 | 0.00 | 79 | 1014.1 |
| 20260507000049 | 75 | 0 | 0.0 | 2.0 | 0.00 | 0.00 | 0.00 | 80 | 1014.2 |
| 20260506234555 | 76 | 360 | 0.0 | 1.0 | 0.00 | 0.00 | 0.00 | 80 | 1013.5 |
| 20260506233051 | 76 | 0 | 0.0 | 3.0 | 0.00 | 0.00 | 0.00 | 79 | 1013.8 |
| 20260506231553 | 76 | 0 | 0.0 | 2.0 | 0.00 | 0.00 | 0.00 | 79 | 1013.1 |
| 20260506230059 | 76 | 0 | 0.0 | 2.0 | 0.00 | 0.00 | 0.00 | 79 | 1013.2 |
| 20260506224550 | 78 | 0 | 1.0 | 3.0 | 0.00 | 0.00 | 0.00 | 73 | 1013.9 |
| 20260506223049 | 79 | 121 | 1.0 | 5.0 | 0.00 | 0.00 | 0.00 | 70 | 1012.9 |
| 20260506221549 | 79 | 138 | 2.0 | 8.0 | 0.00 | 0.00 | 0.00 | 69 | 1013.8 |
| 20260506220052 | 80 | 200 | 2.0 | 8.0 | 0.00 | 0.00 | 0.00 | 68 | 1013.9 |
| 20260506214549 | 80 | 207 | 2.0 | 10.0 | 0.00 | 0.00 | 0.00 | 67 | 1013.3 |
| 20260506213046 | 81 | 160 | 2.0 | 10.0 | 0.00 | 0.00 | 0.00 | 66 | 1013.9 |
| 20260506211552 | 83 | 194 | 0.0 | 9.0 | 0.00 | 0.00 | 0.00 | 65 | 1013.7 |
| 20260506210048 | 82 | 210 | 2.0 | 7.0 | 0.00 | 0.00 | 0.00 | 64 | 1014.1 |
| 20260506204549 | 82 | 0 | 3.0 | 9.0 | 0.00 | 0.00 | 0.00 | 65 | 1014.3 |
| 20260506203048 | 82 | 194 | 3.0 | 10.0 | 0.00 | 0.00 | 0.00 | 64 | 1014.6 |
| 20260506201546 | 82 | 11 | 2.0 | 11.0 | 0.00 | 0.00 | 0.00 | 65 | 1014.9 |
| 20260506200043 | 82 | 169 | 4.0 | 10.0 | 0.00 | 0.00 | 0.00 | 62 | 1015.1 |
| 20260506194550 | 83 | 0 | 2.0 | 10.0 | 0.00 | 0.00 | 0.00 | 62 | 1015.4 |
| 20260506193048 | 83 | 0 | 2.0 | 10.0 | 0.00 | 0.00 | 0.00 | 63 | 1015.6 |
| 20260506191550 | 82 | 249 | 2.0 | 7.0 | 0.00 | 0.00 | 0.00 | 64 | 1015.7 |
| 20260506190052 | 82 | 194 | 3.0 | 12.0 | 0.00 | 0.00 | 0.00 | 64 | 1015.6 |
| 20260506184552 | 83 | 142 | 2.0 | 12.0 | 0.00 | 0.00 | 0.00 | 63 | 1015.9 |
| 20260506183051 | 82 | 195 | 4.0 | 13.0 | 0.00 | 0.00 | 0.00 | 62 | 1016.0 |
| 20260506181549 | 81 | 213 | 5.0 | 16.0 | 0.00 | 0.00 | 0.00 | 65 | 1016.0 |
| 20260506180049 | 82 | 217 | 3.0 | 10.0 | 0.00 | 0.00 | 0.00 | 64 | 1016.1 |
| 20260506174548 | 80 | 173 | 3.0 | 10.0 | 0.00 | 0.00 | 0.00 | 65 | 1016.2 |
| 20260506173122 | 80 | 169 | 4.0 | 9.0 | 0.00 | 0.00 | 0.00 | 66 | 1016.5 |
| 20260506171544 | 80 | 252 | 3.0 | 6.0 | 0.00 | 0.00 | 0.00 | 64 | 1016.7 |
| 20260506170055 | 78 | 185 | 2.0 | 11.0 | 0.00 | 0.00 | 0.00 | 67 | 1017.1 |
| 20260506164555 | 79 | 180 | 1.0 | 8.0 | 0.00 | 0.00 | 0.00 | 65 | 1017.1 |
| 20260506163058 | 76 | 340 | 4.0 | 9.0 | 0.00 | 0.00 | 0.00 | 69 | 1017.4 |
| 20260506161603 | 77 | 182 | 3.0 | 10.0 | 0.00 | 0.00 | 0.00 | 68 | 1017.6 |
| 20260506160047 | 76 | 169 | 2.0 | 11.0 | 0.00 | 0.00 | 0.00 | 70 | 1018.0 |
| 20260506154553 | 76 | 231 | 5.0 | 13.0 | 0.00 | 0.00 | 0.00 | 70 | 1017.9 |
| 20260506153056 | 76 | 263 | 2.0 | 7.0 | 0.00 | 0.00 | 0.00 | 71 | 1018.0 |